Regional Weather Roundup
Issued by NWS Glasgow, MT

Current Version | Previous Version | Text Only | Print | Product List | Glossary On
Versions: 1 2 3 4 5 6 7 8 9 10 11 12 13 14 15 16 17 18 19 20 21 22 23 24 25 26 27 28 29 30 31 32 33 34 35 36 37 38 39 40 41 42 43 44 45 46 47 48 49 50
000
ASUS45 KGGW 230315
RWRGGW
HOURLY WEATHER ROUNDUP FOR NORTHEAST MONTANA
NATIONAL WEATHER SERVICE GLASGOW MONTANA
800 PM MST MON DEC 22 2014

NOTE: "FAIR" INDICATES FEW OR NO CLOUDS BELOW 12,000 FEET WITH NO
SIGNIFICANT WEATHER AND/OR OBSTRUCTIONS TO VISISBILITY.

NORTHEAST MONTANA


CITY           SKY/WX    TMP DP  RH WIND       PRES   REMARKS
GLASGOW        CLOUDY    29  24  82 NW18      29.96R
PLENTYWOOD       N/A     24  23  96 N15         N/A
WOLF POINT     CLOUDY    26  19  74 NW9       29.96R
JORDAN           N/A     34  27  75 NW22      29.95R
WINNETT          N/A     34  25  69 W15         N/A
SIDNEY         CLOUDY    25  21  86 NW18G24   29.90R
GLENDIVE       CLOUDY    23  18  80 NW17G24   29.90R
MALTA            N/A     34  30  85 W9          N/A
SCOBEY           N/A     21  14  74 W20G28    29.90R

FORT PECK REPORTS


CITY           SKY/WX    TMP DP  RH WIND       PRES   REMARKS
FORT PECK        N/A     29  26  89 NW17        N/A
THE PINES        N/A     31  28  89 N6G14       N/A

SOUTHEAST MONTANA


CITY           SKY/WX    TMP DP  RH WIND       PRES   REMARKS
BILLINGS       MOCLDY    32  21  64 NW10      30.03R
MILES CITY     CLOUDY    32  26  78 N18       29.92R
BAKER          LGT SNOW  22  20  92 NW21G26   29.85R FOG
LIVINGSTON     CLOUDY    30  23  75 SW6       30.09R

CENTRAL MONTANA


CITY           SKY/WX    TMP DP  RH WIND       PRES   REMARKS
HAVRE          CLOUDY    30  24  78 SW10      30.07R
LEWISTOWN      CLOUDY    32  24  72 NW8       30.06R
GREAT FALLS    CLOUDY    33  24  69 W7        30.10R
CUT BANK       PTCLDY    27  21  78 N8        30.10R
HELENA         CLOUDY    36  21  54 W13       30.13R
BUTTE          CLOUDY    27  17  66 CALM      30.14R
BOZEMAN        MOCLDY    27  24  89 S6        30.12R

WESTERN MONTANA


CITY           SKY/WX    TMP DP  RH WIND       PRES   REMARKS
MISSOULA       CLOUDY    35  24  64 NW8       30.23R
KALISPELL      NOT AVBL

NORTH DAKOTA


CITY           SKY/WX    TMP DP  RH WIND       PRES   REMARKS
WILLISTON      CLOUDY    27  22  81 NW15      29.87R
DICKINSON      LGT SNOW  25  21  85 NW17      29.76R FOG
MINOT          CLOUDY    30  28  92 NW16      29.79R FOG
BISMARCK       LGT SNOW  30  28  92 N13G23    29.72R FOG

SOUTHERN SASKATCHEWAN


CITY           SKY/WX    TMP DP  RH WIND       PRES   REMARKS
REGINA         CLOUDY    21  21 100 NW12      29.95R
ESTEVAN        FLURRIES  25  25 100 N12       29.87
SWIFT CURRENT  CLOUDY    23  21  93 NW10      29.97R FOG




USA.gov is the U.S. government's official web portal to all federal, state and local government web resources and services.